Track STARLINK-1909 now! 10-day predictions STARLINK-1909 is classified as:
1 47550U 21009C 21111.58334491 .00003766 00000-0 46984-4 0 9993 2 47550 53.0541 110.2401 0003719 3.3317 312.9133 15.62742936 12580